GLG635 MROC-SEGU

Flight info

Callsign GLG635
Flight time 1h 55m
Altitude 39000
Route DRAKE UM659 ANRAX DCT MNV DCT ASDEL
Aircraft A20N/M-SDE2E3FGHIJ1RWXY/LB1

Departure

Time 2026-05-07 06:25
Airport Juan Santamaría International Airport (MROC)

Arrival

Time 2026-05-07 08:20
Airport José Joaquín de Olmedo International Airport (SEGU)
Time Latitude Longitude Altitude Speed Heading
2026-05-07 05:57 9.99749 -84.20349 3033 ft 0 kts 339°
2026-05-07 06:17 9.99737 -84.20344 3034 ft 3 kts 339°
2026-05-07 06:17 9.99720 -84.20337 3034 ft 2 kts 339°
2026-05-07 06:17 9.99705 -84.20330 3033 ft 3 kts 295°
2026-05-07 06:17 9.99702 -84.20312 3032 ft 3 kts 252°
2026-05-07 06:18 9.99709 -84.20293 3032 ft 3 kts 249°
2026-05-07 06:18 9.99713 -84.20281 3034 ft 0 kts 249°
2026-05-07 06:20 9.99712 -84.20284 3034 ft 2 kts 249°
2026-05-07 06:20 9.99698 -84.20321 3033 ft 10 kts 249°
2026-05-07 06:20 9.99662 -84.20420 3034 ft 19 kts 249°
2026-05-07 06:21 9.99607 -84.20568 3034 ft 25 kts 249°
2026-05-07 06:21 9.99544 -84.20740 3034 ft 27 kts 250°
2026-05-07 06:21 9.99474 -84.20922 3030 ft 30 kts 248°
2026-05-07 06:21 9.99400 -84.21120 3007 ft 33 kts 249°
2026-05-07 06:22 9.99331 -84.21304 2998 ft 27 kts 249°
2026-05-07 06:22 9.99205 -84.21636 2973 ft 30 kts 249°
2026-05-07 06:22 9.99131 -84.21832 2953 ft 29 kts 250°
2026-05-07 06:23 9.99100 -84.21996 2956 ft 23 kts 277°
2026-05-07 06:23 9.99068 -84.22160 2940 ft 26 kts 244°
2026-05-07 06:23 9.98920 -84.22169 2939 ft 20 kts 149°
2026-05-07 06:23 9.98913 -84.22159 2941 ft 1 kts 110°
2026-05-07 06:24 9.98916 -84.22152 2943 ft 3 kts 70°
2026-05-07 06:24 9.98954 -84.22048 2952 ft 46 kts 69°
2026-05-07 06:24 9.99151 -84.21524 2983 ft 112 kts 69°
2026-05-07 06:24 9.99493 -84.20611 3041 ft 163 kts 69°
2026-05-07 06:25 9.99887 -84.19502 3646 ft 169 kts 70°
2026-05-07 06:25 10.00288 -84.18414 4507 ft 162 kts 68°
2026-05-07 06:25 10.00706 -84.17334 5122 ft 170 kts 68°
2026-05-07 06:25 10.01165 -84.16163 5555 ft 189 kts 68°
2026-05-07 06:26 10.01680 -84.14856 5978 ft 209 kts 68°
2026-05-07 06:26 10.02171 -84.13388 6383 ft 229 kts 82°
2026-05-07 06:26 10.01990 -84.11784 7148 ft 232 kts 112°
2026-05-07 06:26 10.01031 -84.10485 7940 ft 235 kts 140°
2026-05-07 06:27 9.99711 -84.09420 8492 ft 252 kts 140°
2026-05-07 06:27 9.98275 -84.08268 8888 ft 274 kts 140°
2026-05-07 06:27 9.96738 -84.07030 9478 ft 286 kts 140°
2026-05-07 06:27 9.95174 -84.05768 10276 ft 290 kts 140°
2026-05-07 06:28 9.93347 -84.04745 10592 ft 315 kts 161°
2026-05-07 06:28 9.91090 -84.04513 10812 ft 341 kts 184°
2026-05-07 06:28 9.88785 -84.05237 11346 ft 355 kts 207°
2026-05-07 06:28 9.86815 -84.06783 12043 ft 362 kts 221°
2026-05-07 06:29 9.84990 -84.08563 12749 ft 366 kts 222°
2026-05-07 06:29 9.83136 -84.10373 13422 ft 372 kts 221°
2026-05-07 06:29 9.81237 -84.12182 14041 ft 377 kts 220°
2026-05-07 06:29 9.79319 -84.13970 14649 ft 380 kts 219°
2026-05-07 06:30 9.77359 -84.15777 15257 ft 384 kts 219°
2026-05-07 06:30 9.75365 -84.17604 15864 ft 387 kts 219°
2026-05-07 06:30 9.73347 -84.19449 16429 ft 392 kts 219°
2026-05-07 06:30 9.71284 -84.21286 16991 ft 395 kts 214°
2026-05-07 06:31 9.68894 -84.22626 17521 ft 392 kts 196°
2026-05-07 06:31 9.66246 -84.23182 18129 ft 386 kts 179°
2026-05-07 06:31 9.63558 -84.23037 18553 ft 388 kts 170°
2026-05-07 06:31 9.60885 -84.22664 19105 ft 388 kts 166°
2026-05-07 06:32 9.58253 -84.22022 19532 ft 390 kts 161°
2026-05-07 06:32 9.55656 -84.21329 20033 ft 393 kts 162°
2026-05-07 06:32 9.52980 -84.20646 20477 ft 397 kts 162°
2026-05-07 06:32 9.50292 -84.19982 21002 ft 399 kts 162°
2026-05-07 06:33 9.47582 -84.19321 21472 ft 403 kts 162°
2026-05-07 06:33 9.44843 -84.18657 21941 ft 406 kts 162°
2026-05-07 06:33 9.42084 -84.17988 22394 ft 409 kts 162°
2026-05-07 06:33 9.39306 -84.17314 22850 ft 412 kts 162°
2026-05-07 06:34 9.36499 -84.16633 23309 ft 415 kts 162°
2026-05-07 06:34 9.33681 -84.15949 23705 ft 418 kts 162°
2026-05-07 06:34 9.30844 -84.15260 24076 ft 421 kts 162°
2026-05-07 06:34 9.27979 -84.14564 24445 ft 424 kts 162°
2026-05-07 06:35 9.25099 -84.13865 24803 ft 426 kts 162°
2026-05-07 06:35 9.22238 -84.13170 25158 ft 429 kts 163°
2026-05-07 06:35 9.19327 -84.12464 25506 ft 432 kts 163°
2026-05-07 06:35 9.16390 -84.11750 25850 ft 434 kts 163°
2026-05-07 06:36 9.13444 -84.11035 26187 ft 437 kts 163°
2026-05-07 06:36 9.10479 -84.10315 26521 ft 440 kts 163°
2026-05-07 06:36 9.07489 -84.09590 26839 ft 442 kts 163°
2026-05-07 06:36 9.04489 -84.08862 27157 ft 445 kts 163°
2026-05-07 06:37 9.01461 -84.08128 27464 ft 448 kts 163°
2026-05-07 06:37 8.98425 -84.07392 27776 ft 450 kts 163°
2026-05-07 06:37 8.95371 -84.06652 28070 ft 453 kts 163°
2026-05-07 06:37 8.92297 -84.05907 28369 ft 455 kts 163°
2026-05-07 06:38 8.89212 -84.05159 28665 ft 457 kts 164°
2026-05-07 06:38 8.87158 -84.04662 28842 ft 459 kts 164°
2026-05-07 06:38 8.84039 -84.03907 29119 ft 462 kts 164°
2026-05-07 06:38 8.79846 -84.02892 29478 ft 465 kts 164°
2026-05-07 06:39 8.77760 -84.02387 29647 ft 467 kts 164°
2026-05-07 06:39 8.74589 -84.01619 29928 ft 469 kts 164°
2026-05-07 06:39 8.70372 -84.00598 30267 ft 471 kts 164°
2026-05-07 06:39 8.68233 -84.00032 30448 ft 471 kts 161°
2026-05-07 06:40 8.65142 -83.98916 30718 ft 471 kts 156°
2026-05-07 06:40 8.62085 -83.97706 30980 ft 473 kts 157°
2026-05-07 06:40 8.59011 -83.96497 31313 ft 472 kts 157°
2026-05-07 06:40 8.55993 -83.95314 31697 ft 471 kts 157°
2026-05-07 06:41 8.52939 -83.94118 32082 ft 469 kts 158°
2026-05-07 06:41 8.49909 -83.92931 32460 ft 467 kts 158°
2026-05-07 06:41 8.46876 -83.91744 32834 ft 465 kts 158°
2026-05-07 06:41 8.43864 -83.90564 33205 ft 463 kts 158°
2026-05-07 06:42 8.40858 -83.89387 33566 ft 462 kts 158°
2026-05-07 06:42 8.37876 -83.88220 33928 ft 460 kts 158°
2026-05-07 06:42 8.34901 -83.87055 34233 ft 458 kts 158°
2026-05-07 06:42 8.31917 -83.85888 34471 ft 458 kts 158°
2026-05-07 06:43 8.28949 -83.84727 34705 ft 458 kts 158°
2026-05-07 06:43 8.25976 -83.83565 34960 ft 457 kts 158°
2026-05-07 06:43 8.23013 -83.82406 35221 ft 456 kts 158°
2026-05-07 06:43 8.20095 -83.81265 35471 ft 456 kts 158°
2026-05-07 06:44 8.17557 -83.80271 35679 ft 455 kts 155°
2026-05-07 06:44 8.14620 -83.79067 35894 ft 455 kts 155°
2026-05-07 06:44 8.11725 -83.77873 36122 ft 454 kts 155°
2026-05-07 06:44 8.08802 -83.76695 36369 ft 453 kts 156°
2026-05-07 06:45 8.05862 -83.75536 36608 ft 452 kts 156°
2026-05-07 06:45 8.02934 -83.74396 36856 ft 451 kts 156°
2026-05-07 06:45 8.00003 -83.73262 37093 ft 450 kts 157°
2026-05-07 06:45 7.97096 -83.72140 37331 ft 448 kts 157°
2026-05-07 06:46 7.94175 -83.71011 37565 ft 447 kts 157°
2026-05-07 06:46 7.91267 -83.69886 37768 ft 446 kts 157°
2026-05-07 06:46 7.88377 -83.68767 37973 ft 446 kts 157°
2026-05-07 06:46 7.85482 -83.67646 38171 ft 445 kts 157°
2026-05-07 06:47 7.82593 -83.66526 38368 ft 444 kts 157°
2026-05-07 06:47 7.79711 -83.65409 38567 ft 443 kts 157°
2026-05-07 06:47 7.76831 -83.64293 38707 ft 443 kts 157°
2026-05-07 06:47 7.73953 -83.63176 38823 ft 443 kts 157°
2026-05-07 06:48 7.71101 -83.62070 38928 ft 444 kts 157°
2026-05-07 06:48 7.68184 -83.60938 38933 ft 443 kts 157°
2026-05-07 06:48 7.62436 -83.58707 38935 ft 448 kts 157°
2026-05-07 06:49 7.56576 -83.56431 38935 ft 454 kts 157°
2026-05-07 06:49 7.50634 -83.54122 38931 ft 459 kts 157°
2026-05-07 06:50 7.44652 -83.51797 38932 ft 461 kts 157°
2026-05-07 06:50 7.38671 -83.49473 38931 ft 461 kts 157°
2026-05-07 06:51 7.32721 -83.47162 38930 ft 461 kts 157°
2026-05-07 06:51 7.26722 -83.44831 38930 ft 461 kts 157°
2026-05-07 06:52 7.20720 -83.42499 38932 ft 462 kts 157°
2026-05-07 06:52 7.14719 -83.40169 38929 ft 463 kts 157°
2026-05-07 06:53 7.08711 -83.37835 38929 ft 463 kts 157°
2026-05-07 06:53 7.02716 -83.35506 38929 ft 464 kts 158°
2026-05-07 06:54 6.96680 -83.33162 38930 ft 466 kts 158°
2026-05-07 06:54 6.90622 -83.30810 38929 ft 467 kts 158°
2026-05-07 06:55 6.84548 -83.28452 38929 ft 468 kts 158°
2026-05-07 06:55 6.78454 -83.26087 38927 ft 470 kts 158°
2026-05-07 06:56 6.72348 -83.23718 38927 ft 471 kts 158°
2026-05-07 06:56 6.66233 -83.21346 38926 ft 471 kts 158°
2026-05-07 06:57 6.60163 -83.18992 38922 ft 471 kts 158°
2026-05-07 06:57 6.54047 -83.16621 38926 ft 471 kts 158°
2026-05-07 06:58 6.47926 -83.14248 38925 ft 471 kts 158°
2026-05-07 06:58 6.41801 -83.11875 38923 ft 471 kts 158°
2026-05-07 06:59 6.35690 -83.09507 38922 ft 471 kts 158°
2026-05-07 06:59 6.29569 -83.07136 38925 ft 471 kts 158°
2026-05-07 07:00 6.23454 -83.04768 38921 ft 471 kts 158°
2026-05-07 07:00 6.17379 -83.02415 38921 ft 470 kts 158°
2026-05-07 07:01 6.11278 -83.00053 38920 ft 469 kts 158°
2026-05-07 07:01 6.05174 -82.97690 38921 ft 469 kts 158°
2026-05-07 07:02 5.99092 -82.95337 38917 ft 469 kts 158°
2026-05-07 07:02 5.93003 -82.92981 38918 ft 468 kts 158°
2026-05-07 07:03 5.86924 -82.90635 38921 ft 468 kts 158°
2026-05-07 07:03 5.80833 -82.88318 38921 ft 468 kts 158°
2026-05-07 07:04 5.74739 -82.86000 38920 ft 468 kts 158°
2026-05-07 07:04 5.68642 -82.83678 38922 ft 469 kts 158°
2026-05-07 07:05 5.62537 -82.81352 38923 ft 469 kts 158°
2026-05-07 07:05 5.56467 -82.79040 38921 ft 469 kts 158°
2026-05-07 07:06 5.50321 -82.76699 38920 ft 470 kts 158°
2026-05-07 07:06 5.44246 -82.74387 38922 ft 470 kts 158°
2026-05-07 07:07 5.38128 -82.72058 38919 ft 469 kts 158°
2026-05-07 07:07 5.32016 -82.69732 38917 ft 469 kts 158°
2026-05-07 07:08 5.25901 -82.67406 38919 ft 469 kts 158°
2026-05-07 07:08 5.19798 -82.65084 38921 ft 469 kts 158°
2026-05-07 07:09 5.13725 -82.62775 38919 ft 469 kts 158°
2026-05-07 07:09 5.07623 -82.60454 38919 ft 469 kts 158°
2026-05-07 07:10 5.01524 -82.58136 38916 ft 469 kts 158°
2026-05-07 07:10 4.95412 -82.55813 38921 ft 469 kts 158°
2026-05-07 07:11 4.89303 -82.53491 38921 ft 469 kts 158°
2026-05-07 07:11 4.83205 -82.51175 38920 ft 469 kts 158°
2026-05-07 07:12 4.77087 -82.48851 38922 ft 469 kts 158°
2026-05-07 07:12 4.70966 -82.46526 38922 ft 469 kts 158°
2026-05-07 07:13 4.64889 -82.44219 38919 ft 470 kts 158°
2026-05-07 07:13 4.58769 -82.41896 38916 ft 470 kts 158°
2026-05-07 07:14 4.52654 -82.39575 38924 ft 470 kts 158°
2026-05-07 07:14 4.46539 -82.37241 38923 ft 469 kts 158°
2026-05-07 07:15 4.40444 -82.34910 38922 ft 469 kts 158°
2026-05-07 07:15 4.34340 -82.32578 38922 ft 468 kts 158°
2026-05-07 07:16 4.28286 -82.30266 38920 ft 468 kts 158°
2026-05-07 07:16 4.22207 -82.27944 38917 ft 468 kts 158°
2026-05-07 07:17 4.16124 -82.25622 38922 ft 468 kts 158°
2026-05-07 07:17 4.10028 -82.23295 38926 ft 468 kts 158°
2026-05-07 07:18 4.03928 -82.20967 38918 ft 469 kts 158°
2026-05-07 07:18 3.97831 -82.18641 38920 ft 470 kts 158°
2026-05-07 07:19 3.91721 -82.16310 38921 ft 470 kts 157°
2026-05-07 07:19 3.85600 -82.13975 38917 ft 470 kts 157°
2026-05-07 07:20 3.79515 -82.11654 38922 ft 471 kts 157°
2026-05-07 07:20 3.73384 -82.09316 38918 ft 471 kts 157°
2026-05-07 07:21 3.67254 -82.06979 38923 ft 471 kts 157°
2026-05-07 07:21 3.61140 -82.04648 38918 ft 471 kts 157°
2026-05-07 07:22 3.55016 -82.02314 38918 ft 470 kts 157°
2026-05-07 07:22 3.48890 -81.99986 38916 ft 470 kts 157°
2026-05-07 07:23 3.43796 -81.98059 38917 ft 470 kts 157°
2026-05-07 07:23 3.37675 -81.95744 38917 ft 470 kts 157°
2026-05-07 07:24 3.31555 -81.93427 38915 ft 469 kts 157°
2026-05-07 07:24 3.25492 -81.91132 38916 ft 469 kts 158°
2026-05-07 07:25 3.16345 -81.87671 38919 ft 468 kts 158°
2026-05-07 07:26 3.10259 -81.85368 38923 ft 467 kts 158°
2026-05-07 07:26 3.04181 -81.83069 38919 ft 467 kts 158°
2026-05-07 07:27 2.98106 -81.80771 38919 ft 466 kts 158°
2026-05-07 07:27 2.92040 -81.78476 38918 ft 466 kts 158°
2026-05-07 07:28 2.85970 -81.76180 38925 ft 466 kts 158°
2026-05-07 07:28 2.79946 -81.73902 38920 ft 466 kts 158°
2026-05-07 07:29 2.73876 -81.71606 38924 ft 466 kts 158°
2026-05-07 07:29 2.67814 -81.69314 38921 ft 466 kts 158°
2026-05-07 07:30 2.61743 -81.67019 38914 ft 466 kts 158°
2026-05-07 07:30 2.55672 -81.64724 38924 ft 466 kts 158°
2026-05-07 07:31 2.49609 -81.62432 38921 ft 466 kts 158°
2026-05-07 07:31 2.43546 -81.60141 38927 ft 466 kts 159°
2026-05-07 07:32 2.37520 -81.57864 38921 ft 465 kts 159°
2026-05-07 07:32 2.31465 -81.55575 38929 ft 465 kts 159°
2026-05-07 07:33 2.25402 -81.53285 38917 ft 465 kts 159°
2026-05-07 07:33 2.19343 -81.50995 38923 ft 465 kts 159°
2026-05-07 07:34 2.13292 -81.48709 38920 ft 464 kts 159°
2026-05-07 07:34 2.07250 -81.46427 38924 ft 464 kts 159°
2026-05-07 07:35 2.01209 -81.44146 38918 ft 464 kts 159°
2026-05-07 07:35 1.95173 -81.41867 38925 ft 464 kts 159°
2026-05-07 07:36 1.89170 -81.39600 38927 ft 463 kts 159°
2026-05-07 07:36 1.83133 -81.37320 38926 ft 463 kts 159°
2026-05-07 07:37 1.77106 -81.35045 38923 ft 463 kts 159°
2026-05-07 07:37 1.71082 -81.32771 38934 ft 463 kts 159°
2026-05-07 07:38 1.65057 -81.30496 38924 ft 462 kts 159°
2026-05-07 07:38 1.59036 -81.28224 38929 ft 463 kts 159°
2026-05-07 07:39 1.53008 -81.25948 38935 ft 463 kts 159°
2026-05-07 07:39 1.47903 -81.24021 38926 ft 463 kts 159°
2026-05-07 07:40 1.41853 -81.21799 38931 ft 463 kts 163°
2026-05-07 07:40 1.35598 -81.20236 38931 ft 463 kts 167°
2026-05-07 07:41 1.29328 -81.18758 38924 ft 463 kts 166°
2026-05-07 07:41 1.23102 -81.17286 38921 ft 463 kts 166°
2026-05-07 07:42 1.16829 -81.15804 38921 ft 463 kts 166°
2026-05-07 07:42 1.10552 -81.14323 38932 ft 463 kts 167°
2026-05-07 07:43 1.04275 -81.12842 38928 ft 464 kts 167°
2026-05-07 07:43 0.97991 -81.11359 38936 ft 463 kts 167°
2026-05-07 07:44 0.91699 -81.09874 38933 ft 464 kts 167°
2026-05-07 07:44 0.85419 -81.08393 38928 ft 464 kts 167°
2026-05-07 07:45 0.79177 -81.06920 38936 ft 463 kts 167°
2026-05-07 07:45 0.72891 -81.05437 38931 ft 464 kts 167°
2026-05-07 07:46 0.66602 -81.03954 38929 ft 464 kts 167°
2026-05-07 07:46 0.60320 -81.02472 38931 ft 463 kts 167°
2026-05-07 07:47 0.54032 -81.00989 38937 ft 464 kts 167°
2026-05-07 07:47 0.47762 -80.99510 38930 ft 464 kts 167°
2026-05-07 07:48 0.41477 -80.98027 38928 ft 463 kts 167°
2026-05-07 07:48 0.35200 -80.96547 38928 ft 464 kts 167°
2026-05-07 07:49 0.28955 -80.95073 38924 ft 464 kts 167°
2026-05-07 07:49 0.22682 -80.93594 38924 ft 464 kts 167°
2026-05-07 07:50 0.16396 -80.92111 38931 ft 464 kts 167°
2026-05-07 07:50 0.10110 -80.90628 38925 ft 464 kts 167°
2026-05-07 07:51 0.03822 -80.89145 38932 ft 464 kts 167°
2026-05-07 07:51 -0.02428 -80.87670 38917 ft 464 kts 167°
2026-05-07 07:52 -0.06604 -80.86685 38925 ft 464 kts 167°
2026-05-07 07:52 -0.11356 -80.85564 38929 ft 464 kts 167°
2026-05-07 07:53 -0.17663 -80.84077 38931 ft 464 kts 167°
2026-05-07 07:53 -0.23947 -80.82594 38915 ft 464 kts 167°
2026-05-07 07:54 -0.30224 -80.81114 38918 ft 463 kts 167°
2026-05-07 07:54 -0.36495 -80.79634 38923 ft 463 kts 167°
2026-05-07 07:55 -0.38573 -80.79144 38916 ft 463 kts 167°
2026-05-07 07:55 -0.46967 -80.77164 38916 ft 463 kts 167°
2026-05-07 07:56 -0.55317 -80.75194 38917 ft 463 kts 167°
2026-05-07 07:56 -0.61594 -80.73713 38792 ft 462 kts 167°
2026-05-07 07:56 -0.64680 -80.72985 38350 ft 461 kts 167°
2026-05-07 07:57 -0.67799 -80.72249 37661 ft 461 kts 167°
2026-05-07 07:57 -0.70928 -80.71512 36866 ft 461 kts 167°
2026-05-07 07:57 -0.74044 -80.70777 36051 ft 463 kts 167°
2026-05-07 07:57 -0.77183 -80.70037 35227 ft 464 kts 167°
2026-05-07 07:58 -0.80333 -80.69295 34415 ft 466 kts 167°
2026-05-07 07:58 -0.83486 -80.68551 33548 ft 467 kts 166°
2026-05-07 07:58 -0.86665 -80.67803 32551 ft 470 kts 166°
2026-05-07 07:58 -0.89856 -80.67015 31520 ft 474 kts 162°
2026-05-07 07:59 -0.92967 -80.65915 30555 ft 476 kts 155°
2026-05-07 07:59 -0.95935 -80.64461 29732 ft 474 kts 148°
2026-05-07 07:59 -0.98705 -80.62707 29201 ft 463 kts 144°
2026-05-07 07:59 -1.01361 -80.60928 28617 ft 456 kts 144°
2026-05-07 08:00 -1.03989 -80.59185 28035 ft 450 kts 144°
2026-05-07 08:00 -1.06578 -80.57467 27445 ft 444 kts 144°
2026-05-07 08:00 -1.09142 -80.55765 26888 ft 439 kts 144°
2026-05-07 08:00 -1.11673 -80.54082 26304 ft 435 kts 144°
2026-05-07 08:01 -1.14177 -80.52415 25705 ft 431 kts 144°
2026-05-07 08:01 -1.16651 -80.50767 25170 ft 426 kts 144°
2026-05-07 08:01 -1.19117 -80.49125 24624 ft 423 kts 144°
2026-05-07 08:01 -1.21604 -80.47634 24082 ft 421 kts 150°
2026-05-07 08:02 -1.24272 -80.46421 23519 ft 420 kts 155°
2026-05-07 08:02 -1.26952 -80.45292 22882 ft 416 kts 155°
2026-05-07 08:02 -1.29595 -80.44166 22366 ft 410 kts 155°
2026-05-07 08:02 -1.32207 -80.43050 21814 ft 406 kts 155°
2026-05-07 08:03 -1.34786 -80.41947 21258 ft 401 kts 155°
2026-05-07 08:03 -1.37351 -80.40852 20723 ft 397 kts 155°
2026-05-07 08:03 -1.39882 -80.39772 20183 ft 393 kts 155°
2026-05-07 08:03 -1.42399 -80.38698 19629 ft 390 kts 155°
2026-05-07 08:04 -1.44886 -80.37638 19064 ft 388 kts 155°
2026-05-07 08:04 -1.47361 -80.36582 18546 ft 385 kts 155°
2026-05-07 08:04 -1.49812 -80.35537 17999 ft 381 kts 155°
2026-05-07 08:04 -1.52238 -80.34503 17474 ft 376 kts 155°
2026-05-07 08:05 -1.54603 -80.33495 16959 ft 372 kts 155°
2026-05-07 08:05 -1.56968 -80.32486 16447 ft 368 kts 155°
2026-05-07 08:05 -1.59320 -80.31484 15926 ft 365 kts 155°
2026-05-07 08:05 -1.61642 -80.30494 15425 ft 362 kts 155°
2026-05-07 08:06 -1.63967 -80.29529 14911 ft 359 kts 157°
2026-05-07 08:06 -1.66300 -80.28642 14371 ft 358 kts 158°
2026-05-07 08:06 -1.68624 -80.27781 13889 ft 355 kts 158°
2026-05-07 08:06 -1.70940 -80.26921 13391 ft 353 kts 158°
2026-05-07 08:07 -1.73185 -80.26080 12904 ft 349 kts 158°
2026-05-07 08:07 -1.75429 -80.25233 12424 ft 346 kts 158°
2026-05-07 08:07 -1.77670 -80.24383 11937 ft 342 kts 158°
2026-05-07 08:07 -1.79893 -80.23539 11467 ft 340 kts 158°
2026-05-07 08:08 -1.82096 -80.22702 10982 ft 337 kts 158°
2026-05-07 08:08 -1.84282 -80.21871 10482 ft 336 kts 158°
2026-05-07 08:08 -1.86450 -80.21047 10230 ft 327 kts 158°
2026-05-07 08:08 -1.87837 -80.20521 10148 ft 318 kts 158°
2026-05-07 08:09 -1.89861 -80.19753 10034 ft 305 kts 158°
2026-05-07 08:09 -1.92451 -80.18769 9657 ft 296 kts 158°
2026-05-07 08:09 -1.94349 -80.18047 9445 ft 290 kts 158°
2026-05-07 08:09 -1.96230 -80.17331 9080 ft 289 kts 158°
2026-05-07 08:10 -1.97500 -80.16848 8830 ft 288 kts 158°
2026-05-07 08:10 -1.99346 -80.16146 8469 ft 286 kts 158°
2026-05-07 08:10 -2.01202 -80.15440 8097 ft 284 kts 158°
2026-05-07 08:10 -2.03040 -80.14741 7727 ft 282 kts 158°
2026-05-07 08:11 -2.04872 -80.14044 7361 ft 281 kts 158°
2026-05-07 08:11 -2.06699 -80.13350 6995 ft 280 kts 159°
2026-05-07 08:11 -2.08513 -80.12661 6624 ft 279 kts 159°
2026-05-07 08:11 -2.10320 -80.11974 6256 ft 278 kts 159°
2026-05-07 08:12 -2.12124 -80.11288 5875 ft 277 kts 159°
2026-05-07 08:12 -2.13921 -80.10605 5506 ft 275 kts 159°
2026-05-07 08:12 -2.15697 -80.09930 5155 ft 273 kts 159°
2026-05-07 08:12 -2.17482 -80.09252 4780 ft 272 kts 159°
2026-05-07 08:13 -2.19242 -80.08583 4417 ft 271 kts 159°
2026-05-07 08:13 -2.21002 -80.07914 4086 ft 268 kts 159°
2026-05-07 08:13 -2.22743 -80.07252 3959 ft 265 kts 159°
2026-05-07 08:13 -2.24421 -80.06614 3931 ft 250 kts 159°
2026-05-07 08:14 -2.25924 -80.05853 3882 ft 237 kts 141°
2026-05-07 08:14 -2.26971 -80.04642 3800 ft 226 kts 120°
2026-05-07 08:14 -2.27741 -80.03289 3603 ft 223 kts 121°
2026-05-07 08:14 -2.28522 -80.01993 3467 ft 211 kts 123°
2026-05-07 08:15 -2.29268 -80.00782 3297 ft 201 kts 123°
2026-05-07 08:15 -2.29979 -79.99603 3127 ft 194 kts 122°
2026-05-07 08:15 -2.30531 -79.98387 2782 ft 197 kts 100°
2026-05-07 08:15 -2.30342 -79.97054 2489 ft 196 kts 64°
2026-05-07 08:16 -2.29412 -79.96085 2195 ft 196 kts 31°
2026-05-07 08:16 -2.28221 -79.95424 1926 ft 195 kts 28°
2026-05-07 08:16 -2.27092 -79.94817 1782 ft 174 kts 28°
2026-05-07 08:16 -2.26086 -79.94269 1693 ft 154 kts 28°
2026-05-07 08:17 -2.25180 -79.93767 1711 ft 152 kts 29°
2026-05-07 08:17 -2.24255 -79.93249 1698 ft 151 kts 29°
2026-05-07 08:17 -2.23333 -79.92725 1653 ft 153 kts 29°
2026-05-07 08:17 -2.22412 -79.92197 1521 ft 151 kts 30°
2026-05-07 08:18 -2.21504 -79.91665 1346 ft 152 kts 30°
2026-05-07 08:18 -2.20580 -79.91132 1064 ft 152 kts 29°
2026-05-07 08:18 -2.19672 -79.90622 804 ft 148 kts 28°
2026-05-07 08:18 -2.18779 -79.90125 576 ft 146 kts 28°
2026-05-07 08:19 -2.17904 -79.89626 360 ft 143 kts 30°
2026-05-07 08:19 -2.17066 -79.89119 160 ft 143 kts 28°
2026-05-07 08:19 -2.16204 -79.88642 30 ft 137 kts 29°
2026-05-07 08:19 -2.15528 -79.88252 29 ft 84 kts 31°
2026-05-07 08:20 -2.15230 -79.88069 28 ft 36 kts 30°
2026-05-07 08:20 -2.15013 -79.87947 28 ft 35 kts 28°
2026-05-07 08:20 -2.14810 -79.87830 27 ft 33 kts 30°
2026-05-07 08:20 -2.14674 -79.87758 27 ft 1 kts
2026-05-07 08:21 -2.14641 -79.87778 28 ft 13 kts 306°
2026-05-07 08:21 -2.14653 -79.87888 28 ft 21 kts 249°
2026-05-07 08:21 -2.14773 -79.87994 28 ft 27 kts 211°
2026-05-07 08:21 -2.14817 -79.88090 28 ft 15 kts 288°
2026-05-07 08:22 -2.14785 -79.88162 28 ft 1 kts 298°
2026-05-07 08:22 -2.14781 -79.88169 28 ft 4 kts 297°
2026-05-07 08:22 -2.14743 -79.88192 28 ft 10 kts 321°
2026-05-07 08:22 -2.14722 -79.88224 28 ft 5 kts 290°
2026-05-07 08:23 -2.14715 -79.88236 28 ft 0 kts 300°
2026-05-07 08:23 -2.14713 -79.88240 28 ft 0 kts 299°